Location: Gälforsberget
(66.6500°N, 22.4167°E)
Time: 19:12:57
(UTC+00:00)

Cosmos 2219 Rocket - Pass Details

Date: 11 April 2026
Orbit: 826 x 846 km, 71.0° (Epoch: 19 May)

Event Time Altitude Azimuth Distance (km) Brightness Sun altitude
Rises 21:02:04 0° 244° (WSW) 3,368 5.3 -13.1°
Reaches altitude 10° 21:04:30 10° 247° (WSW) 2,437 4.6 -13.1°
Maximum altitude 21:10:06 74° 332° (NNW) 869 2.4 -13.3°
Drops below altitude 10° 21:15:44 10° 59° (ENE) 2,453 4.8 -13.5°
Sets 21:18:11 0° 61° (ENE) 3,392 5.5 -13.6°
